Wakefield, VA

10:44 PM EDT on August 23, 2016 (GMT -0400)
Wakefield Municipal

Weather History for KAKQ - March, 2013

Change the Weather History Date:

Tuesday, March 5, 2013

  Actual Average (KJGG) Record (KJGG)
Temperature  
Mean Temperature 40 °F -  
Max Temperature 52 °F 60 °F 83 °F (1976)
Min Temperature 27 °F 39 °F 17 °F (1960)
Degree Days  
Heating Degree Days 26    
Moisture  
Dew Point 28 °F    
Average Humidity 70    
Maximum Humidity 96    
Minimum Humidity 30    
Precipitation  
Precipitation 0.26 in - - ()
Sea Level Pressure  
Sea Level Pressure 29.96 in    
Wind  
Wind Speed 1 mph (SE)    
Max Wind Speed 6 mph    
Max Gust Speed -    
Visibility 8 miles    
Events Rain    
Averages and records for this station are not official NWS values.
T = Trace of Precipitation, MM = Missing Value Source: NWS Daily Summary

Daily Weather History Graph

Daily Weather History Graph

Search for Another Location

Airport or City:

Trip Planner

Search our weather history database for the weather conditions in past years. The results will help you decide how hot, cold, wet, or windy it might be!

Date:

Astronomy

Mar. 05, 2013 Rise Set
Actual Time 6:33 AM EST 6:06 PM EST
Civil Twilight 6:07 AM EST 6:32 PM EST
Nautical Twilight 5:37 AM EST 7:02 PM EST
Astronomical Twilight 5:07 AM EST 7:32 PM EST
Moon 1:36 AM EST (3/5) 11:49 AM EST (3/5)
Length of Visible Light 12h 25m
Length of Day
11h 33m
Last Quarter, 41% of the Moon is Illuminated
Mar 5
Last Quarter
Mar 11
New
Mar 19
First Quarter
Mar 27
Full
Apr 3
Last Quarter

Hourly Weather History & Observations

Time (EST) Temp. Windchill Dew Point Humidity Pressure Visibility Wind Dir Wind Speed Gust Speed Precip Events Conditions
12:54 AM 27.0 °F - 19.0 °F 72% 30.08 in 10.0 mi Calm Calm - N/A   Clear
2:54 AM 28.0 °F - 19.9 °F 72% 30.08 in 10.0 mi Calm Calm - N/A   Clear
3:54 AM 27.0 °F - 19.9 °F 75% 30.09 in 10.0 mi Calm Calm - N/A   Clear
4:54 AM 27.0 °F - 21.0 °F 78% 30.10 in 10.0 mi Calm Calm - N/A   Clear
5:54 AM 28.0 °F - 21.9 °F 78% 30.10 in 10.0 mi Calm Calm - N/A   Overcast
6:54 AM 30.0 °F - 23.0 °F 75% 30.11 in 10.0 mi Calm Calm - N/A   Scattered Clouds
7:54 AM 33.1 °F - 26.1 °F 75% 30.11 in 10.0 mi Calm Calm - N/A   Partly Cloudy
8:54 AM 41.0 °F 39.0 °F 23.0 °F 49% 30.11 in 10.0 mi SE 3.5 mph - N/A   Scattered Clouds
9:54 AM 46.0 °F - 19.9 °F 35% 30.10 in 10.0 mi Calm Calm - N/A   Partly Cloudy
10:54 AM 46.9 °F - 19.0 °F 33% 30.07 in 10.0 mi Calm Calm - N/A   Clear
11:54 AM 48.9 °F - 19.9 °F 32% 30.05 in 10.0 mi Variable 4.6 mph - N/A   Scattered Clouds
12:54 PM 52.0 °F - 21.0 °F 30% 30.01 in 10.0 mi Variable 3.5 mph - N/A   Scattered Clouds
1:54 PM 51.1 °F - 21.9 °F 32% 29.99 in 10.0 mi South 5.8 mph - N/A   Overcast
2:54 PM 51.1 °F - 23.0 °F 33% 29.97 in 10.0 mi Variable 4.6 mph - 0.00 in Rain Light Rain
3:54 PM 46.0 °F - 37.0 °F 71% 29.97 in 10.0 mi Calm Calm - 0.02 in Rain Light Rain
4:54 PM 45.0 °F 43.5 °F 34.0 °F 65% 29.96 in 10.0 mi Variable 3.5 mph - 0.00 in Rain Light Rain
5:54 PM 39.9 °F - 34.0 °F 79% 29.95 in 8.0 mi Calm Calm - 0.01 in Rain Light Rain
6:54 PM 39.0 °F - 36.0 °F 89% 29.93 in 7.0 mi Calm Calm - 0.03 in Rain Light Rain
7:54 PM 39.0 °F - 35.1 °F 86% 29.91 in 7.0 mi Calm Calm - 0.05 in Rain Light Rain
8:54 PM 37.0 °F - 34.0 °F 89% 29.88 in 7.0 mi Calm Calm - 0.02 in Rain Light Rain
9:50 PM 37.4 °F 34.9 °F 35.6 °F 93% 29.79 in 5.0 mi Variable 3.5 mph - 0.00 in   Overcast
9:54 PM 37.9 °F 35.5 °F 35.1 °F 89% 29.80 in 6.0 mi Variable 3.5 mph - 0.00 in   Overcast
9:59 PM 37.4 °F 34.9 °F 35.6 °F 93% 29.80 in 6.0 mi Variable 3.5 mph - N/A   Overcast
10:54 PM 39.0 °F - 36.0 °F 89% 29.76 in 5.0 mi Calm Calm - 0.01 in Rain Light Rain
11:12 PM 39.2 °F 37.0 °F 37.4 °F 93% 29.74 in 2.5 mi ESE 3.5 mph - 0.05 in Rain Rain
11:19 PM 39.2 °F 35.9 °F 37.4 °F 93% 29.73 in 3.0 mi East 4.6 mph - 0.06 in Rain Light Rain
11:54 PM 39.0 °F 36.8 °F 37.9 °F 96% 29.69 in 3.0 mi Variable 3.5 mph - 0.12 in Rain Light Rain